www.pogodaiklimat.ru

Погода и климат >> Архив погоды >> Россия >> Магаданская область >> Мыс Алевина


ПОГОДА на Мысе Алевина

  • Прогноз погоды на Мысе Алевина
  • Монитор погоды на Мысе Алевина
  • Климат города

АРХИВ ПОГОДЫ на Мысе Алевина

Время (UTC), дата Ветер
(напр.,м/с)
 
Видим.   Явления Облачность Т
(С)
Тd
(С)
f
(%)
Тe
(С)
Тes
(С)
Комфортность P
(гПа)
Po
(гПа)
Тmin
(С)
Tmax
(С)
R
(мм)
R24
(мм)
S
(см)
21 18.04 СЗ 3 50 км 3/3 300 м
[St]
-5.3 -7.1 87 -11 -9 1006.0 997.7 -6.3 95
00 19.04 З 1 50 км ясно -1.8 -5.0 79 -4 +7 1006.4 998.2
03 19.04 штиль 0 50 км ясно +1.2 -5.3 62 +1 +14 опасность
простуды
1006.5 998.4
06 19.04 ЮВ 1 50 км ясно -0.9 -4.6 76 -3 +2 1007.0 998.8
09 19.04 СЗ 5 50 км ясно -3.4 -4.0 96 -10 -10 1007.7 999.4 +4.9
12 19.04 СЗ 4 50 км ясно -4.2 -4.4 99 -11 -11 1008.5 1000.2
15 19.04 СЗ 5 500 м туман ?/? -5.3 -5.5 98 -13 -13 1008.8 1000.5
18 19.04 СЗ 4 500 м туман ?/? -5.2 -5.5 98 -12 -12 1008.8 1000.5
21 19.04 штиль 0 500 м туман ясно -4.5 -4.9 97 -6 -2 1008.9 1000.6 -5.4 94
00 20.04 З 2 4000 м туман местами 10/0
[As trans]
-4.2 -4.4 99 -9 -5 1008.9 1000.6
03 20.04 З 4 4000 м туман местами 10/0
[As trans]
-3.5 -4.1 96 -10 -7 1008.9 1000.7
06 20.04 СЗ 4 50 км ясно -2.6 -3.1 96 -9 -6 1008.9 1000.6
09 20.04 СЗ 3 50 км 6/6 600 м
[Cu hum]
-2.9 -3.2 98 -8 -8 1009.7 1001.4 -2.5
12 20.04 В 5 50 км 10/10 1000 м
[Sc]
-3.1 -3.7 96 -10 -10 1010.8 1002.5
15 20.04 З 1 50 км 6/6 1000 м
[Sc]
-3.6 -4.1 96 -6 -6 1011.3 1003.0
18 20.04 СЗ 2 50 км 8/8 1000 м
[Sc]
-3.7 -4.3 96 -8 -8 1011.4 1003.1
21 20.04 СЗ 2 50 км 3/3 1000 м
[Sc]
-2.8 -5.0 85 -7 -5 1011.3 1003.0 -4.5 94
00 21.04 З 1 50 км 3/3 1000 м
[Sc]
-1.1 -3.8 82 -3 +4 1011.1 1002.9
03 21.04 З 1 50 км 6/6 600 м
[Cu hum]
+0.1 -3.3 78 -2 +3 1011.4 1003.2
06 21.04 ЮВ 1 50 км 4/4 600 м
[Cu hum]
-0.7 -2.6 87 -3 0 1011.0 1002.8
09 21.04 ЮВ 4 50 км 8/8 300 м
[St]
-1.8 -2.2 97 -8 -8 1012.2 1004.0 +2.4
12 21.04 ЮВ 1 50 км 3/3 600 м
[Cu hum]
-3.1 -3.9 94 -6 -6 1012.8 1004.5
15 21.04 СЗ 2 50 км ясно -2.9 -3.2 98 -7 -7 1012.0 1003.7
18 21.04 З 2 50 км 8/8 300 м
[St]
-2.9 -3.1 99 -7 -7 1011.2 1002.9
21 21.04 СЗ 3 500 м туман ?/? -2.9 -3.0 99 -8 -8 1010.2 1001.9 -3.3 92
00 22.04 СЗ 1 50 км {туман} 8/8 1000 м
[Sc]
-0.5 -1.6 92 -3 -1 1009.0 1000.8
03 22.04 З 1 50 км 10/10 1000 м
[Sc]
+0.2 -2.4 83 -2 -2 1008.2 1000.0
06 22.04 ЮВ 1 50 км 10/10 1000 м
[Sc]
+2.1 -2.5 72 +1 +1 1007.7 999.6
09 22.04 СВ 3 50 км 8/8 1000 м
[Sc]
+0.9 -3.8 71 -3 -3 1008.2 1000.1 +2.2
12 22.04 ЮВ 2 50 км 10/10 1000 м
[Sc]
-0.2 -4.1 75 -4 -4 1008.5 1000.4
15 22.04 В 6 50 км 10/10 1000 м
[Sc]
-0.4 -4.5 74 -7 -7 1009.1 1000.9
18 22.04 СЗ 3 50 км 10/10 1000 м
[Sc]
-1.5 -3.1 89 -7 -7 1010.4 1002.1
21 22.04 З 1 50 км 10/10 1000 м
[Sc]
-1.1 -3.3 85 -3 -3 1011.7 1003.5 -1.7 92
00 23.04 СЗ 3 50 км 10/10 1000 м
[Sc]
-0.7 -2.8 86 -6 -6 1012.6 1004.4
03 23.04 З 2 50 км 10/10 1000 м
[Sc]
-0.8 -2.4 89 -5 -5 1013.8 1005.5
06 23.04 СЗ 5 50 км 10/10 1000 м
[Sc]
-1.1 -2.1 93 -8 -8 1013.5 1005.3
09 23.04 СЗ 7 50 км 9/9 1000 м
[Sc]
-1.7 -2.5 94 -9 -9 1013.9 1005.6 +0.2
12 23.04 СЗ 7 50 км 3/3 1000 м
[Sc]
-2.0 -3.0 93 -10 -10 1014.0 1005.7
15 23.04 СЗ 6
{10}
50 км 3/3 1000 м
[Sc]
-2.0 -3.0 93 -9 -9 1014.0 1004.9
18 23.04 С 3 50 км ясно -2.6 -5.9 78 -8 -8 1012.3 1004.1
21 23.04 СЗ 2 50 км ясно -0.2 -5.0 70 -4 -1 1011.7 1003.5 -3.6 90
00 24.04 СЗ 3 50 км ясно -1.2 -2.8 89 -6 +2 1010.6 1002.4
03 24.04 СЗ 5 50 км ясно -0.5 -1.9 90 -7 -1 1009.5 1001.3
06 24.04 СЗ 7 50 км ясно -0.4 -2.9 83 -8 -6 1008.3 1000.1
09 24.04 СЗ 7 50 км ясно -1.5 -2.6 92 -9 -9 1007.6 999.6 +0.3
12 24.04 СЗ 10-13
{13}
50 км ясно -1.3 -3.4 86 -10 -10 1007.5 999.3
15 24.04 СЗ 9-11
{14}
50 км ясно -2.3 -4.1 87 -11 -11 1007.4 999.2
18 24.04 З 6
{12}
50 км 8/8 1000 м
[Sc]
-3.6 -4.2 96 -11 -11 1007.2 998.9
21 24.04 З 1 50 км 10/10 1000 м
[Sc]
-3.9 -4.3 97 -6 -6 1006.9 998.6 -4.3 89
00 25.04 В 1 50 км 10/10 300 м
[St]
-2.3 -3.4 92 -5 -5 1005.6 997.4
03 25.04 Ю 2 4000 м слабый ливневой снег 10/10 300 м
[Cb cap]
-1.3 -2.0 95 -5 -5 1004.4 996.3
06 25.04 ЮВ 4 2000 м ливневой снег 10/10 300 м
[Cb cap]
-2.0 -2.1 99 -8 -8 1002.3 994.1
09 25.04 В 4 2000 м ливневой снег 10/10 300 м
[Cb cap]
-2.2 -2.3 99 -8 -8 1000.3 992.1 -1.1 6
12 25.04 З 3 2000 м ливневой снег 10/10 300 м
[Cb cap]
-2.2 -2.2 100 -8 -8 998.7 990.6
15 25.04 СЗ 5 50 км в посл. час ливневой снег 10/10 300 м
[Cb cap]
-2.9 -2.9 100 -10 -10 998.3 990.1
18 25.04 З 4 50 км {ливн. осадки} 10/10 300 м
[Cb cap]
-4.5 -5.0 96 -11 -11 998.6 990.4

 

Местоположение метеостанции Мыс Алевина (Магаданская область, Россия): широта 58.83 долгота 151.30 высота над уровнем моря 65 м.

В архиве по умолчанию представлена погода на Мысе Алевина за последнюю неделю. Архивные данные за месяц целиком и за предыдущие месяцы, начиная с января 2011 года, Вы можете получить, выбрав интересующий диапазон дат из раскрывающегося списка и нажав кнопку "Ввод!".


*Определитесь, кто Вы:
робот инопланетянин человек

Внимание! Время в таблицах - всемирное. Для получения местного времени необходимо прибавить поправку, которая на Мысе Алевина равна 11 ч.

Смотрите также архив погоды в соседних городах и на ближайших метеорологических станциях:

Погода в Оле (Магаданская область, Россия) (81 км)
Погода в Нагаева (Магаданская область, Россия) (84 км)
Погода в Магадане (Магаданская область, Россия) (87 км)
Погода в Армани (Магаданская область, Россия) (115 км)
Погода на Мысе Братьев (Магаданская область, Россия) (119 км)
Погода на Остров Спафарьева (Магаданская область, Россия) (137 км)
Погода в Палатке (Магаданская область, Россия) (143 км)
Погода в Талоне (Магаданская область, Россия) (185 км)
Погода в Брохово (Магаданская область, Россия) (188 км)
Погода в Мадауне (Магаданская область, Россия) (200 км)

Пояснения к столбцам:

Ветер - указаны скорость ветра в м/с - средняя за 10 мин, порывы в срок и между сроками (в фигурных скобках) и направление, откуда дует ветер: С - северный, СВ - северо-восточный, В - восточный, ЮВ - юго-восточный, Ю - южный, ЮЗ - юго-западный, З - западный, СЗ - северо-западный.
Видимость - горизонтальная дальность видимости в метрах или километрах. При видимости от 1 до 10 км при отсутствии осадков обычно наблюдается дымка, при ухудшении видимости до 1 км и менее - туман. В сухую погоду видимость может ухудшаться дымом, пылью или мглою.
Явления - указаны атмосферные явления, наблюдавшиеся в срок или в последний час перед сроком; фигурными скобками обозначены явления, наблюдавшиеся между сроками (за 1-3 часа до срока); квадратными скобками обозначены град или гололедные отложения с указанием их диаметра в мм.
Облачность - указаны через наклонную черту общая и нижняя облачность в баллах и высота нижней границы облаков в метрах; квадратными скобками обозначены формы облаков: Ci - перистые, Cs - перисто-слоистые, Cc - перисто-кучевые, Ac - высококучевые, As - высокослоистые, Sc - слоисто-кучевые, Ns - слоисто-дождевые, Cu - кучевые, Cb - кучево-дождевые. Подробнее классификацию облаков см. в Атласе облаков (PDF).
T - Температура воздуха - температура, измеренная на высоте 2 м над землей.
Td - Температура точки росы - температура, при понижении до которой содержащийся в воздухе водяной пар достигнет насыщения.
f - Относительная влажность воздуха - влажноcть воздуха, измеренная на высоте 2 м над землей.
Te - Эффективная температура - температура, которую ощущает одетый по сезону человек в тени. Характеристика душности погоды. При расчете учитывается влияние влажности воздуха и скорости ветра на теплоощущения человека.
Tes - Эффективная температура на солнце - температура, которую ощущает человек, с поправкой на солнечный нагрев. Характеристика знойности погоды. Зависит от высоты солнца над горизонтом, облачности и скорости ветра. Ночью, в пасмурную погоду, а также при ветре 12 м/с и более поправка равна нулю.
P - Атмосферное давление - приведенное к уровню моря атмосферное давление.
Po - Атмосферное давление - измеренное на уровне метеостанции атмосферное давление.
Tmin - Минимальная температура - минимум температуры воздуха на высоте 2 м над землей.
Tmax - Максимальная температура - максимум температуры воздуха на высоте 2 м над землей.
R - Количество осадков - Количество выпавших осадков за период времени, мм. При наведении курсора мыши на число - период времени, за который выпало указанное количество осадков.
R24 - Количество осадков - Количество выпавших осадков за 24 часа, мм.
S - Снежный покров - Высота снежного покрова, см. При наведении курсора мыши на число - состояние снежного покрова и степень покрытия местности в баллах.